Theta_e
353 353 350 348 353 355 359 354 353 357 357 352 349 351 355 355 356 354 347 347 346 348 349 347 343 341 341 341 342 342 342 342 343 340 331 333 335 334 332 341 325 324 329 341 332 332 330 337 337
355 353 349 345 354 360 360 355 357 356 354 352 352 353 354 357 353 349 348 347 344 347 349 347 342 340 338 340 341 342 342 343 339 332 333 334 334 332 341 341 327 328 340 341 332 334 333 333 335
350 349 347 354 356 361 361 355 355 354 354 352 352 353 353 353 350 348 348 348 345 346 348 346 342 336 332 335 337 338 337 335 332 332 333 331 329 338 341 339 329 331 338 333 333 336 334 335 334
347 349 347 358 361 358 357 355 353 353 354 352 352 353 350 351 349 348 349 347 343 343 347 343 333 329 333 330 331 333 331 331 332 331 327 328 332 335 341 332 332 333 332 335 336 335 334 334 335
347 347 357 356 357 355 352 350 354 351 352 352 351 351 349 351 346 347 349 347 342 341 344 336 331 329 329 328 329 330 334 339 340 341 340 340 339 336 333 333 331 333 334 336 335 335 336 336 336
348 349 358 358 358 355 352 352 352 354 353 352 349 349 352 351 346 347 348 347 337 336 344 339 341 340 328 329 332 335 330 326 328 332 333 332 332 335 336 336 329 331 335 337 338 337 336 335 336
348 355 358 356 358 357 355 354 353 349 352 352 350 354 351 355 348 349 346 346 337 335 341 344 347 342 331 332 334 329 327 328 328 328 328 338 333 332 328 328 330 333 335 338 338 338 338 338 335
349 352 354 352 357 355 354 353 352 350 353 351 351 355 354 354 348 350 346 346 334 330 335 336 340 345 344 338 331 331 331 331 331 330 329 332 328 329 334 335 334 335 336 337 337 338 340 340 337
346 350 356 354 353 354 353 353 352 350 351 352 352 352 351 350 347 350 347 348 339 328 330 330 333 336 338 341 342 333 335 333 334 330 331 339 336 334 338 338 336 335 334 332 332 335 335 340 340
343 349 350 348 351 352 352 353 353 350 349 352 352 350 351 350 347 343 347 348 345 333 326 330 329 329 329 330 328 328 339 342 340 342 340 338 339 339 338 337 338 336 336 335 333 336 337 335 338
341 346 345 347 348 350 350 350 353 350 351 352 353 352 351 350 349 346 345 346 343 334 326 326 328 327 328 327 327 327 329 343 338 341 340 338 337 338 337 335 335 337 336 336 334 341 340 339 339
341 342 342 344 348 350 351 350 350 349 349 346 351 350 351 350 349 346 344 342 337 329 326 326 326 328 328 328 326 329 332 341 340 339 340 338 336 336 336 338 338 339 338 335 336 341 341 341 341
334 337 341 342 349 350 350 350 349 348 348 346 350 351 351 351 350 347 341 335 333 330 328 326 325 325 325 326 329 333 339 337 336 336 337 338 338 339 343 343 339 339 337 335 340 342 342 343 342
332 333 335 345 349 349 350 349 348 348 350 350 351 351 352 352 351 348 339 333 332 333 333 327 326 325 325 329 332 338 337 337 334 335 336 337 340 344 344 343 340 338 336 337 343 343 342 342 342
331 338 337 341 349 350 349 351 351 350 353 353 353 352 352 352 351 348 344 337 333 344 347 330 327 327 329 333 335 339 337 339 341 343 342 341 343 345 345 342 341 337 336 337 342 343 343 343 343
336 337 339 337 346 348 347 348 350 351 354 355 354 354 353 352 351 350 348 340 346 339 346 338 332 329 331 336 337 337 338 339 344 345 346 345 344 345 345 343 342 340 339 340 343 344 342 344 344
336 338 338 338 345 350 349 349 348 351 352 355 354 354 354 354 353 351 350 349 346 348 348 347 342 334 337 337 339 339 340 342 345 346 347 347 345 345 345 343 341 341 340 340 343 343 344 343 343
337 336 336 337 338 346 350 347 349 350 351 352 354 353 353 354 353 351 351 350 350 349 349 349 348 345 342 340 340 341 342 344 345 346 346 346 344 344 345 344 340 340 340 340 344 342 344 341 342
333 334 335 336 339 346 349 349 351 349 351 353 354 353 354 353 353 351 351 350 350 350 350 349 347 340 339 344 344 345 345 345 346 347 346 346 344 343 344 346 343 340 339 341 343 343 343 339 341
332 333 335 337 342 344 351 352 350 351 350 351 353 354 353 353 352 350 350 349 349 349 350 348 347 339 343 346 345 345 345 345 346 347 346 346 344 345 344 345 344 342 340 339 343 342 343 340 341
332 332 334 334 335 348 351 352 354 352 352 353 352 351 353 352 351 350 348 348 348 348 348 346 346 340 343 345 347 346 346 346 346 345 345 344 343 343 344 345 343 341 340 339 340 338 341 342 341
332 331 331 332 335 339 345 345 351 351 351 354 354 354 353 354 351 350 348 348 346 345 344 346 344 342 345 345 346 346 346 346 346 346 345 344 343 343 342 342 342 342 340 338 335 334 338 340 341
331 330 329 331 336 340 345 350 346 346 349 350 353 355 354 350 350 349 347 346 346 345 343 346 346 346 347 345 345 346 346 346 347 346 344 344 343 343 344 343 342 343 342 340 340 339 335 336 341
327 328 328 330 335 339 341 346 340 344 348 351 352 353 350 348 347 347 346 344 345 343 344 345 344 344 346 346 347 346 347 347 345 344 344 346 345 345 344 344 343 342 342 342 341 341 341 336 340
328 329 332 336 336 335 342 345 344 343 341 345 347 351 348 347 346 346 344 345 344 341 342 345 345 346 345 346 346 347 347 345 345 345 345 346 346 347 346 345 345 344 343 342 342 343 341 341 338
328 328 331 336 336 335 343 346 341 339 339 339 343 349 347 346 346 345 342 344 341 340 341 343 344 345 347 346 346 345 345 345 344 345 346 346 346 346 349 346 346 346 345 345 344 342 342 342 342
328 330 327 332 333 337 338 342 338 339 339 341 343 348 347 345 345 345 341 341 340 340 340 342 344 346 347 347 346 345 344 345 348 347 343 345 346 347 348 348 347 347 347 346 345 343 342 342 341
328 327 331 333 336 335 337 341 340 342 342 342 342 345 347 345 346 346 346 342 341 342 342 343 344 346 346 345 344 345 346 350 350 346 343 347 346 348 347 347 349 348 347 346 345 344 343 343 343
329 331 331 332 334 334 336 335 339 344 342 342 342 342 347 345 346 346 346 343 342 342 343 343 344 344 343 344 346 349 351 351 351 352 351 349 349 349 347 348 347 348 348 347 347 347 346 346 345
324 327 330 329 333 336 337 335 337 337 338 338 340 341 344 345 346 346 345 344 344 345 346 347 349 349 348 348 350 352 352 348 350 349 345 337 341 341 346 350 350 348 346 347 348 347 347 347 347
Wind_Speed
8 7 6 2 2 5 4 3 1 4 1 1 6 3 1 4 1 2 18 23 30 30 29 27 25 24 23 22 22 22 21 20 18 15 15 15 14 13 12 10 11 14 17 15 7 7 9 7 7
6 7 4 4 4 4 3 3 3 4 1 2 5 4 1 4 4 13 26 26 29 30 28 27 25 24 22 22 21 21 19 18 17 16 15 14 12 12 11 8 11 15 15 11 6 8 3 4 5
6 8 4 4 3 4 5 7 7 4 4 1 3 7 3 3 7 25 22 30 28 27 27 26 25 22 22 22 22 22 20 19 18 17 15 13 11 12 12 9 11 13 13 9 3 3 3 4 5
6 3 6 5 9 2 3 5 5 2 2 3 7 6 5 2 16 14 29 31 28 29 25 26 24 23 23 22 23 22 21 20 17 15 13 13 12 12 11 9 9 11 11 8 4 7 8 7 5
5 4 4 5 4 2 2 4 5 3 2 3 2 5 8 5 10 21 31 29 27 28 25 25 24 24 23 22 22 21 20 18 15 13 11 11 9 8 9 8 8 8 8 6 5 5 5 5 6
4 2 4 7 6 2 2 4 2 2 2 5 8 10 4 2 13 26 28 27 27 28 24 24 22 23 23 22 21 20 18 17 15 13 12 9 8 7 8 6 6 6 6 6 6 7 6 5 5
3 3 4 4 4 1 1 3 4 4 4 5 11 5 6 10 18 26 27 26 26 27 26 24 24 23 21 21 20 19 17 16 15 14 13 10 11 7 5 5 5 6 6 5 5 6 7 7 8
3 2 4 2 3 0 2 5 5 3 4 8 6 5 6 17 23 25 27 27 28 27 27 27 27 25 24 22 20 18 16 15 14 14 14 14 11 15 6 5 4 6 6 5 4 3 4 7 9
2 3 3 6 6 1 5 5 2 3 4 4 3 3 6 24 27 26 28 27 28 29 28 27 28 25 25 22 19 17 14 13 13 14 16 6 15 17 11 7 8 7 7 5 4 5 4 9 10
1 1 4 3 6 4 10 8 5 4 5 4 5 6 18 25 27 29 30 28 26 28 30 28 27 26 24 23 19 16 16 14 14 13 12 4 4 10 8 8 10 11 9 7 6 5 9 10 10
1 1 2 2 8 4 10 8 6 6 5 10 12 17 23 25 25 26 27 25 27 28 29 29 28 26 25 24 19 18 17 15 14 13 10 8 5 6 8 10 11 10 13 10 8 7 8 10 10
2 2 5 2 6 6 8 6 4 10 2 1 14 17 25 26 26 25 26 27 28 31 29 29 28 27 25 22 19 18 15 14 12 12 11 10 8 8 10 12 12 12 13 10 8 7 7 8 9
2 2 0 5 9 7 5 6 4 8 8 8 12 19 22 23 24 22 24 27 28 28 28 28 28 26 25 22 20 16 13 12 10 11 11 10 9 9 11 10 11 9 12 10 8 7 7 8 9
5 7 6 4 8 10 8 3 5 1 4 8 14 18 21 24 24 23 26 28 26 27 27 27 26 26 25 23 20 15 15 11 10 11 11 10 9 9 10 11 9 9 11 9 6 5 6 7 10
6 4 4 1 10 6 10 3 10 4 8 11 14 16 19 22 24 27 27 27 28 20 20 26 26 26 24 21 20 17 15 12 12 10 9 10 10 10 11 9 8 9 10 9 6 5 7 8 10
2 3 2 2 8 3 12 9 7 11 13 13 14 16 17 21 23 26 27 29 24 30 23 26 25 24 23 22 20 17 15 14 13 12 11 11 10 11 11 11 9 9 10 9 7 7 6 5 7
7 2 4 4 9 4 11 5 0 11 12 13 15 15 16 17 19 23 27 28 31 27 23 25 24 24 23 22 21 17 16 15 13 12 11 10 11 11 11 11 10 10 10 10 9 7 6 5 4
2 3 4 4 2 8 10 5 3 12 14 14 14 15 16 17 20 23 23 28 30 33 31 26 30 29 24 23 20 18 18 17 14 13 12 10 10 9 9 12 10 10 10 11 8 6 3 3 4
3 1 5 3 2 2 7 8 8 12 14 14 16 17 18 18 16 21 23 17 23 29 32 24 27 36 26 22 22 20 19 15 12 12 12 10 10 11 10 13 13 9 10 12 10 8 4 4 5
0 6 4 0 8 1 2 6 6 11 16 17 16 16 20 17 16 19 21 20 21 17 21 20 15 35 25 20 20 17 15 14 11 11 9 9 11 12 12 12 12 11 11 13 15 10 6 5 2
3 5 2 5 9 2 4 5 6 7 13 12 12 13 15 16 15 14 17 16 16 17 18 17 15 32 19 20 20 17 16 13 11 7 7 10 11 10 10 11 13 11 12 12 16 12 10 6 3
6 3 5 6 3 4 2 4 5 7 12 10 13 14 14 13 10 11 12 15 16 16 14 17 23 22 16 16 17 16 13 10 8 6 6 7 8 8 9 10 13 12 12 11 13 12 11 9 5
4 2 6 5 3 3 4 4 3 3 10 14 15 16 15 11 10 10 11 14 17 14 15 18 18 15 15 15 16 13 11 10 8 6 6 7 6 8 10 10 10 12 13 12 12 13 14 12 8
6 3 3 1 1 4 1 4 7 5 6 2 12 16 14 11 10 10 11 13 16 15 17 17 17 15 13 16 14 13 13 10 8 5 5 5 7 8 9 11 12 11 12 15 14 14 14 14 12
3 3 3 4 4 6 2 3 8 8 8 7 6 17 15 13 13 12 15 16 16 19 17 15 15 14 13 12 11 10 9 9 6 5 5 7 6 6 7 11 11 11 12 12 14 15 15 14 14
6 5 4 5 5 3 1 5 6 5 8 9 7 14 16 14 14 15 16 16 18 18 17 17 15 14 13 12 11 10 9 7 3 2 4 5 6 7 5 6 7 9 11 13 14 16 16 17 16
6 5 1 3 1 3 2 6 11 8 9 7 7 12 18 17 16 15 17 17 19 19 18 17 16 16 15 13 12 11 9 7 4 4 3 7 3 4 5 5 6 7 9 10 13 15 15 16 15
3 7 3 2 4 10 5 5 9 9 8 12 12 15 20 18 15 15 15 17 18 17 16 17 15 15 14 14 12 11 9 5 4 4 6 3 3 4 3 5 7 7 6 8 10 11 12 14 15
4 4 2 1 2 6 8 7 6 11 10 11 16 18 22 20 18 16 16 18 17 17 17 16 16 15 15 14 13 10 7 4 2 2 1 2 2 3 4 5 6 8 7 7 8 9 10 11 12
1 4 7 4 4 2 4 10 3 6 7 10 13 19 17 21 19 19 20 20 20 19 18 16 15 14 12 12 11 10 9 6 5 3 3 0 0 1 3 3 5 7 7 8 9 9 10 11 11
Wind_Direction
349 1 1 33 81 59 63 63 266 18 146 62 189 195 235 67 17 75 149 156 160 154 155 156 151 151 151 149 150 148 153 156 157 152 148 146 139 133 129 132 117 118 120 115 82 343 70 76 101
10 7 40 60 82 96 72 124 291 217 196 112 125 128 81 84 62 139 148 159 162 154 155 157 157 156 156 156 156 155 156 159 157 153 153 146 141 134 133 139 123 126 123 138 151 351 199 79 92
357 15 63 70 91 112 130 179 201 237 204 49 137 67 49 52 125 144 160 157 158 155 156 158 159 158 154 153 156 158 160 160 159 157 156 147 143 139 142 143 134 132 142 149 91 63 139 200 134
13 42 67 83 98 118 112 152 169 219 137 129 121 73 69 35 148 158 154 159 156 157 154 158 159 156 151 150 153 154 153 154 157 155 151 147 150 148 143 142 142 143 146 150 90 113 134 159 147
46 60 74 88 85 118 154 103 140 42 48 65 125 90 93 27 159 151 155 159 158 156 155 155 159 157 155 154 155 155 156 151 148 147 145 141 140 143 142 144 151 156 159 159 156 151 153 163 169
67 80 94 99 121 177 226 167 178 123 61 120 106 107 106 116 162 156 158 161 162 157 154 158 159 158 161 160 159 159 157 156 156 155 156 149 150 154 152 161 160 171 170 173 175 181 198 220 230
76 75 75 106 106 150 186 157 168 126 124 108 140 99 130 150 163 160 162 164 165 164 160 161 160 160 165 165 164 163 162 161 162 162 158 159 170 171 171 169 183 183 190 188 197 209 211 225 232
87 91 120 116 144 345 149 164 149 170 127 142 167 148 172 172 164 166 166 168 171 172 168 168 168 166 168 172 172 170 172 176 175 178 203 234 206 209 177 186 222 208 198 191 202 226 245 241 233
110 95 145 149 172 185 207 186 177 152 129 140 148 131 185 164 168 168 170 172 176 179 177 179 177 178 177 178 175 176 180 186 185 204 226 277 223 232 230 241 238 232 212 214 246 260 246 245 230
33 120 201 192 175 195 184 191 166 176 188 182 117 139 155 161 169 174 178 177 178 183 184 187 188 188 185 186 187 190 182 196 197 213 219 241 189 205 222 240 253 238 231 248 266 274 252 256 239
27 58 165 199 207 216 171 193 181 191 206 211 187 157 163 166 172 178 182 181 182 187 189 194 196 195 195 194 201 196 197 200 207 221 228 229 222 227 243 259 263 258 237 248 270 273 252 242 245
330 192 254 310 205 192 182 163 195 213 197 268 220 187 172 174 179 184 185 186 188 192 195 197 199 200 201 203 202 200 197 210 216 222 230 235 247 250 264 265 260 262 234 240 267 265 239 233 237
215 350 128 265 186 206 163 190 202 246 256 303 168 176 180 180 186 188 191 194 197 202 201 204 201 202 205 205 202 202 207 213 221 226 235 244 254 256 267 279 267 247 223 232 259 255 237 243 248
311 297 279 190 179 186 191 213 210 164 179 150 162 173 181 190 190 192 196 199 195 203 211 210 208 205 206 208 205 203 211 219 224 234 239 246 255 257 268 274 265 230 218 235 252 253 225 256 261
301 348 128 171 181 176 158 226 227 164 162 163 171 178 188 197 199 205 205 199 198 206 219 214 213 210 210 210 214 214 221 222 226 236 242 246 260 263 262 264 254 228 224 238 242 238 244 262 265
52 52 23 358 165 182 189 259 194 170 176 178 186 191 198 206 210 211 215 210 212 213 222 213 212 217 212 218 219 219 231 226 227 242 245 257 263 277 278 260 244 232 233 227 230 237 266 277 275
31 47 8 355 187 149 204 301 203 182 194 194 199 204 211 212 215 217 224 224 222 222 225 221 217 209 216 218 227 226 234 234 240 251 257 259 263 271 273 254 242 238 236 232 218 243 266 288 237
37 15 349 302 18 207 203 238 203 197 209 214 215 214 220 220 224 227 227 231 228 230 231 233 219 196 198 211 223 226 227 231 242 256 265 269 263 262 254 251 241 235 234 227 219 225 263 280 272
113 333 309 286 79 173 210 242 221 204 216 220 222 220 228 228 229 236 241 243 232 228 241 248 230 184 199 209 212 216 222 232 244 255 270 275 274 271 250 247 239 233 228 220 215 225 270 290 277
96 311 335 329 55 346 223 231 235 218 227 227 229 230 234 232 231 240 241 240 238 237 226 238 214 188 207 209 213 218 231 244 258 272 275 280 269 264 257 246 237 238 228 226 221 225 245 267 297
316 301 307 339 338 91 169 257 241 234 240 238 235 243 237 236 232 232 230 219 220 214 208 213 196 195 209 219 223 230 240 248 265 283 290 269 269 245 249 236 232 247 228 226 221 231 229 243 245
296 236 323 301 269 270 235 285 256 236 252 239 234 223 229 228 227 215 210 208 203 195 201 193 186 202 225 219 222 231 236 249 262 274 290 278 268 252 236 237 233 238 224 220 228 232 231 236 246
262 223 288 319 217 234 204 251 265 303 269 248 217 214 214 214 208 207 206 199 198 203 189 185 190 209 210 216 225 229 239 254 268 278 278 294 273 243 234 239 233 228 225 223 230 233 233 240 235
280 269 41 108 210 257 171 254 273 247 246 280 209 203 202 199 201 201 198 191 190 191 179 185 195 201 204 212 218 235 247 250 262 279 276 272 270 251 242 243 237 227 228 234 237 236 232 237 235
199 248 259 224 217 278 84 221 259 260 257 250 233 205 198 191 191 192 197 192 190 189 187 190 195 198 196 196 204 219 227 235 253 265 279 289 285 278 242 236 235 237 238 236 234 237 233 238 238
189 234 245 258 246 326 187 238 250 294 310 244 234 211 195 190 191 192 196 196 190 190 192 194 194 188 191 195 200 205 210 217 212 4 308 286 299 291 263 234 229 226 232 234 233 231 228 234 238
160 202 49 143 120 256 269 266 278 267 250 218 210 196 192 193 196 195 193 197 192 193 194 194 190 190 196 195 196 190 186 186 190 182 17 339 285 270 259 232 227 231 230 233 237 236 235 234 236
255 134 194 216 241 270 255 272 266 277 260 222 217 204 195 192 194 195 195 197 194 193 193 193 188 190 190 187 185 183 181 197 205 201 179 216 235 237 239 216 227 222 228 227 228 233 235 237 240
148 184 91 189 250 278 288 278 224 256 266 245 222 208 197 188 195 195 195 191 186 183 178 172 173 174 177 180 180 182 179 173 206 276 166 190 239 257 238 233 219 222 220 218 220 222 225 235 239
297 275 210 244 211 235 305 270 200 266 286 266 238 213 196 195 195 198 198 193 187 186 185 181 176 175 177 180 182 184 173 179 192 226 287 329 128 238 256 239 224 225 233 242 238 237 240 242 241